[Date Prev][Date Next][Thread Prev][Thread Next] - [Date Index][Thread Index][Author Index]

2 Line ISS Keps 12-3



ISS
1 25544U 98067A   02337.22028935  .00190497  00000-0  25489-2 0  4351
2 25544  51.6340 284.2634 0003290 235.0992 330.7125 15.56838241230339


----
Via the sarex mailing list at AMSAT.ORG courtesy of AMSAT-NA.
To unsubscribe, send "unsubscribe sarex" to Majordomo@amsat.org



AMSAT Top AMSAT Home